CEB789 RPLL-RPME

Flight info

Callsign CEB789
Flight time 1h 29m
Altitude 35000
Route RDVXIPATA/06 IPATA B462 TAC W9 BANWA
Aircraft A20N/M-SDE2E3FGHIJ1RWXY/C

Departure

Time 2026-05-04 12:53
Airport Ninoy Aquino International Airport (RPLL)

Arrival

Time 2026-05-04 14:23
Airport Bancasi Airport (RPME)
Time Latitude Longitude Altitude Speed Heading
2026-05-04 12:05 14.52298 121.00901 84 ft 0 kts 44°
2026-05-04 12:32 14.52292 121.00896 84 ft 2 kts 44°
2026-05-04 12:32 14.52271 121.00874 84 ft 2 kts 44°
2026-05-04 12:32 14.52260 121.00864 84 ft 2 kts 50°
2026-05-04 12:33 14.52252 121.00851 84 ft 2 kts 62°
2026-05-04 12:33 14.52246 121.00836 84 ft 2 kts 73°
2026-05-04 12:33 14.52242 121.00822 84 ft 2 kts 84°
2026-05-04 12:33 14.52242 121.00806 84 ft 2 kts 95°
2026-05-04 12:34 14.52244 121.00790 84 ft 2 kts 106°
2026-05-04 12:34 14.52250 121.00776 84 ft 2 kts 117°
2026-05-04 12:34 14.52257 121.00763 84 ft 2 kts 128°
2026-05-04 12:34 14.52262 121.00757 84 ft 1 kts 135°
2026-05-04 12:35 14.52264 121.00754 84 ft 0 kts 134°
2026-05-04 12:39 14.52263 121.00756 84 ft 0 kts 136°
2026-05-04 12:39 14.52257 121.00761 84 ft 1 kts 141°
2026-05-04 12:39 14.52244 121.00771 84 ft 2 kts 149°
2026-05-04 12:39 14.52224 121.00775 84 ft 3 kts 185°
2026-05-04 12:40 14.52200 121.00764 84 ft 4 kts 204°
2026-05-04 12:40 14.52167 121.00764 84 ft 5 kts 161°
2026-05-04 12:40 14.52132 121.00787 84 ft 6 kts 138°
2026-05-04 12:40 14.52096 121.00823 84 ft 7 kts 134°
2026-05-04 12:41 14.52055 121.00867 84 ft 9 kts 134°
2026-05-04 12:41 14.52008 121.00915 84 ft 10 kts 135°
2026-05-04 12:41 14.51956 121.00968 84 ft 11 kts 135°
2026-05-04 12:41 14.51897 121.01028 84 ft 12 kts 135°
2026-05-04 12:42 14.51833 121.01095 84 ft 13 kts 134°
2026-05-04 12:42 14.51762 121.01169 84 ft 15 kts 134°
2026-05-04 12:42 14.51685 121.01247 84 ft 16 kts 135°
2026-05-04 12:42 14.51605 121.01332 84 ft 16 kts 135°
2026-05-04 12:43 14.51521 121.01418 84 ft 17 kts 136°
2026-05-04 12:43 14.51434 121.01509 84 ft 18 kts 134°
2026-05-04 12:43 14.51344 121.01602 84 ft 18 kts 135°
2026-05-04 12:43 14.51252 121.01698 84 ft 19 kts 135°
2026-05-04 12:44 14.51169 121.01783 84 ft 14 kts 135°
2026-05-04 12:44 14.51112 121.01842 84 ft 7 kts 140°
2026-05-04 12:44 14.51062 121.01856 84 ft 8 kts 199°
2026-05-04 12:44 14.51045 121.01844 84 ft 0 kts 223°
2026-05-04 12:45 14.51042 121.01839 84 ft 1 kts 237°
2026-05-04 12:45 14.51034 121.01826 84 ft 2 kts 239°
2026-05-04 12:45 14.51021 121.01805 84 ft 4 kts 238°
2026-05-04 12:45 14.51004 121.01774 84 ft 5 kts 239°
2026-05-04 12:46 14.50991 121.01753 84 ft 2 kts 236°
2026-05-04 12:46 14.50980 121.01733 84 ft 3 kts 244°
2026-05-04 12:46 14.50966 121.01703 84 ft 5 kts 241°
2026-05-04 12:46 14.50940 121.01668 84 ft 6 kts 214°
2026-05-04 12:47 14.50907 121.01659 84 ft 5 kts 183°
2026-05-04 12:47 14.50868 121.01653 84 ft 6 kts 206°
2026-05-04 12:47 14.50834 121.01615 84 ft 8 kts 237°
2026-05-04 12:47 14.50803 121.01559 84 ft 10 kts 240°
2026-05-04 12:48 14.50761 121.01485 84 ft 13 kts 240°
2026-05-04 12:48 14.50710 121.01395 84 ft 15 kts 239°
2026-05-04 12:48 14.50652 121.01289 84 ft 17 kts 238°
2026-05-04 12:48 14.50588 121.01172 84 ft 19 kts 241°
2026-05-04 12:49 14.50518 121.01045 84 ft 21 kts 239°
2026-05-04 12:49 14.50441 121.00906 84 ft 22 kts 240°
2026-05-04 12:49 14.50364 121.00771 84 ft 21 kts 240°
2026-05-04 12:49 14.50291 121.00639 84 ft 20 kts 239°
2026-05-04 12:50 14.50220 121.00511 84 ft 20 kts 239°
2026-05-04 12:50 14.50151 121.00387 84 ft 19 kts 240°
2026-05-04 12:50 14.50084 121.00266 84 ft 19 kts 240°
2026-05-04 12:50 14.50037 121.00183 84 ft 11 kts 240°
2026-05-04 12:51 14.50000 121.00114 84 ft 9 kts 241°
2026-05-04 12:51 14.49970 121.00060 84 ft 9 kts 239°
2026-05-04 12:51 14.49937 121.00001 84 ft 10 kts 237°
2026-05-04 12:51 14.49880 120.99967 84 ft 8 kts 170°
2026-05-04 12:52 14.49825 120.99998 84 ft 9 kts 140°
2026-05-04 12:52 14.49810 121.00056 84 ft 9 kts 68°
2026-05-04 12:52 14.49818 121.00072 84 ft 0 kts 59°
2026-05-04 12:53 14.49988 121.00382 84 ft 85 kts 61°
2026-05-04 12:53 14.50398 121.01120 84 ft 147 kts 59°
2026-05-04 12:53 14.50983 121.02144 301 ft 177 kts 60°
2026-05-04 12:53 14.51624 121.03255 841 ft 186 kts 63°
2026-05-04 12:54 14.52238 121.04403 1702 ft 179 kts 63°
2026-05-04 12:54 14.52829 121.05522 2329 ft 184 kts 63°
2026-05-04 12:54 14.53459 121.06728 2691 ft 200 kts 64°
2026-05-04 12:54 14.54154 121.08070 3034 ft 222 kts 65°
2026-05-04 12:55 14.54608 121.09635 3447 ft 236 kts 93°
2026-05-04 12:55 14.54196 121.11298 3895 ft 249 kts 120°
2026-05-04 12:55 14.53247 121.12852 4440 ft 263 kts 127°
2026-05-04 12:55 14.52185 121.14385 5189 ft 269 kts 128°
2026-05-04 12:56 14.51082 121.15969 5966 ft 275 kts 128°
2026-05-04 12:56 14.49962 121.17587 6742 ft 281 kts 128°
2026-05-04 12:56 14.48832 121.19231 7517 ft 287 kts 128°
2026-05-04 12:56 14.47675 121.20918 8285 ft 293 kts 128°
2026-05-04 12:57 14.46372 121.22527 9057 ft 296 kts 137°
2026-05-04 12:57 14.44876 121.23988 9809 ft 301 kts 140°
2026-05-04 12:57 14.43315 121.25452 10484 ft 310 kts 140°
2026-05-04 12:57 14.41675 121.27007 10911 ft 328 kts 139°
2026-05-04 12:58 14.39984 121.28639 11281 ft 347 kts 138°
2026-05-04 12:58 14.38171 121.30416 11638 ft 365 kts 137°
2026-05-04 12:58 14.36329 121.32235 12157 ft 376 kts 137°
2026-05-04 12:58 14.34432 121.34119 12902 ft 379 kts 137°
2026-05-04 12:59 14.32546 121.35992 13667 ft 382 kts 137°
2026-05-04 12:59 14.30618 121.37907 14421 ft 385 kts 137°
2026-05-04 12:59 14.28712 121.39796 15149 ft 388 kts 137°
2026-05-04 12:59 14.26768 121.41719 15874 ft 390 kts 138°
2026-05-04 13:00 14.24808 121.43645 16585 ft 393 kts 137°
2026-05-04 13:00 14.22829 121.45603 17286 ft 395 kts 138°
2026-05-04 13:00 14.20842 121.47572 17975 ft 398 kts 137°
2026-05-04 13:00 14.18849 121.49542 18643 ft 400 kts 138°
2026-05-04 13:01 14.16830 121.51527 19301 ft 403 kts 138°
2026-05-04 13:01 14.15507 121.52829 19720 ft 405 kts 138°
2026-05-04 13:03 14.00203 121.67940 24113 ft 423 kts 138°
2026-05-04 13:03 13.98065 121.70061 24645 ft 426 kts 138°
2026-05-04 13:03 13.95961 121.72142 25146 ft 428 kts 138°
2026-05-04 13:03 13.93810 121.74265 25636 ft 430 kts 138°
2026-05-04 13:04 13.91623 121.76421 26114 ft 433 kts 137°
2026-05-04 13:04 13.89446 121.78565 26579 ft 435 kts 137°
2026-05-04 13:04 13.87288 121.80738 27023 ft 438 kts 135°
2026-05-04 13:04 13.85230 121.83025 27446 ft 441 kts 132°
2026-05-04 13:05 13.83238 121.85426 27853 ft 443 kts 131°
2026-05-04 13:05 13.81259 121.87846 28236 ft 445 kts 131°
2026-05-04 13:05 13.79250 121.90311 28608 ft 448 kts 131°
2026-05-04 13:05 13.77270 121.92740 28955 ft 449 kts 131°
2026-05-04 13:06 13.75258 121.95207 29283 ft 451 kts 131°
2026-05-04 13:06 13.73250 121.97665 29585 ft 453 kts 131°
2026-05-04 13:06 13.71212 122.00163 29872 ft 455 kts 131°
2026-05-04 13:06 13.69176 122.02654 30150 ft 456 kts 131°
2026-05-04 13:07 13.67141 122.05146 30492 ft 456 kts 130°
2026-05-04 13:07 13.65123 122.07615 30866 ft 454 kts 130°
2026-05-04 13:07 13.63086 122.10106 31224 ft 453 kts 130°
2026-05-04 13:07 13.61081 122.12557 31559 ft 452 kts 130°
2026-05-04 13:08 13.59060 122.15027 31886 ft 451 kts 130°
2026-05-04 13:08 13.57047 122.17486 32206 ft 450 kts 130°
2026-05-04 13:08 13.55032 122.19946 32517 ft 450 kts 130°
2026-05-04 13:08 13.53036 122.22383 32822 ft 449 kts 130°
2026-05-04 13:09 13.51009 122.24857 33127 ft 448 kts 130°
2026-05-04 13:09 13.49023 122.27281 33383 ft 448 kts 130°
2026-05-04 13:09 13.47005 122.29742 33596 ft 449 kts 130°
2026-05-04 13:09 13.45004 122.32182 33796 ft 450 kts 130°
2026-05-04 13:10 13.43004 122.34621 33997 ft 451 kts 130°
2026-05-04 13:10 13.40967 122.37105 34197 ft 452 kts 130°
2026-05-04 13:10 13.38964 122.39545 34384 ft 452 kts 130°
2026-05-04 13:10 13.36925 122.42030 34567 ft 453 kts 130°
2026-05-04 13:11 13.34915 122.44479 34747 ft 453 kts 130°
2026-05-04 13:11 13.32873 122.46966 34881 ft 454 kts 130°
2026-05-04 13:11 13.30858 122.49429 34886 ft 455 kts 130°
2026-05-04 13:12 13.26772 122.54390 34893 ft 455 kts 130°
2026-05-04 13:12 13.22682 122.59351 34895 ft 455 kts 130°
2026-05-04 13:13 13.18629 122.64272 34895 ft 455 kts 130°
2026-05-04 13:13 13.14557 122.69237 34895 ft 455 kts 130°
2026-05-04 13:14 13.10484 122.74205 34895 ft 455 kts 130°
2026-05-04 13:14 13.06406 122.79156 34894 ft 456 kts 131°
2026-05-04 13:15 13.02317 122.84112 34894 ft 458 kts 131°
2026-05-04 13:15 12.98201 122.89105 34895 ft 460 kts 131°
2026-05-04 13:16 12.94061 122.94121 34895 ft 462 kts 131°
2026-05-04 13:16 12.89923 122.99144 34895 ft 462 kts 130°
2026-05-04 13:17 12.85775 123.04163 34896 ft 462 kts 130°
2026-05-04 13:17 12.81621 123.09173 34896 ft 462 kts 130°
2026-05-04 13:18 12.77494 123.14156 34895 ft 462 kts 130°
2026-05-04 13:18 12.73344 123.19167 34895 ft 462 kts 130°
2026-05-04 13:19 12.69204 123.24167 34895 ft 462 kts 130°
2026-05-04 13:19 12.65031 123.29203 34895 ft 462 kts 130°
2026-05-04 13:20 12.60892 123.34194 34895 ft 462 kts 130°
2026-05-04 13:20 12.56745 123.39193 34895 ft 462 kts 130°
2026-05-04 13:21 12.52599 123.44189 34895 ft 462 kts 130°
2026-05-04 13:21 12.48438 123.49200 34895 ft 462 kts 130°
2026-05-04 13:22 12.44258 123.54232 34894 ft 462 kts 131°
2026-05-04 13:22 12.40099 123.59211 34895 ft 462 kts 131°
2026-05-04 13:23 12.35938 123.64217 34893 ft 462 kts 130°
2026-05-04 13:23 12.31864 123.69279 34895 ft 462 kts 129°
2026-05-04 13:24 12.27799 123.74352 34895 ft 462 kts 130°
2026-05-04 13:24 12.23732 123.79391 34895 ft 462 kts 130°
2026-05-04 13:25 12.17605 123.86953 34895 ft 462 kts 130°
2026-05-04 13:25 12.13487 123.92028 34895 ft 462 kts 130°
2026-05-04 13:26 12.09412 123.97039 34895 ft 462 kts 130°
2026-05-04 13:26 12.05305 124.02077 34895 ft 462 kts 130°
2026-05-04 13:27 12.01190 124.07134 34895 ft 462 kts 130°
2026-05-04 13:27 11.97091 124.12174 34895 ft 462 kts 130°
2026-05-04 13:28 11.93006 124.17197 34896 ft 462 kts 130°
2026-05-04 13:28 11.88892 124.22248 34896 ft 462 kts 130°
2026-05-04 13:29 11.84784 124.27260 34896 ft 462 kts 130°
2026-05-04 13:29 11.80681 124.32279 34895 ft 462 kts 130°
2026-05-04 13:30 11.76554 124.37338 34895 ft 462 kts 130°
2026-05-04 13:30 11.72455 124.42364 34895 ft 462 kts 130°
2026-05-04 13:31 11.68348 124.47398 34895 ft 462 kts 130°
2026-05-04 13:31 11.64264 124.52403 34895 ft 462 kts 130°
2026-05-04 13:32 11.60162 124.57430 34895 ft 462 kts 130°
2026-05-04 13:32 11.56056 124.62468 34896 ft 462 kts 130°
2026-05-04 13:33 11.51964 124.67490 34895 ft 462 kts 130°
2026-05-04 13:33 11.47845 124.72549 34896 ft 462 kts 130°
2026-05-04 13:34 11.43742 124.77566 34895 ft 462 kts 130°
2026-05-04 13:34 11.39637 124.82578 34896 ft 462 kts 130°
2026-05-04 13:35 11.33477 124.90095 34896 ft 462 kts 130°
2026-05-04 13:36 11.29378 124.95076 34894 ft 461 kts 132°
2026-05-04 13:36 11.24669 124.99460 34893 ft 459 kts 144°
2026-05-04 13:37 11.19200 125.02702 34894 ft 457 kts 156°
2026-05-04 13:37 11.13172 125.04663 34896 ft 455 kts 168°
2026-05-04 13:38 11.06995 125.05919 34896 ft 455 kts 169°
2026-05-04 13:38 11.00808 125.07150 34896 ft 455 kts 169°
2026-05-04 13:39 10.94614 125.08405 34896 ft 455 kts 169°
2026-05-04 13:39 10.88409 125.09587 34896 ft 454 kts 172°
2026-05-04 13:40 10.82101 125.10175 34895 ft 454 kts 178°
2026-05-04 13:40 10.75808 125.10062 34895 ft 454 kts 184°
2026-05-04 13:41 10.69587 125.09358 34896 ft 454 kts 187°
2026-05-04 13:41 10.63305 125.08568 34895 ft 454 kts 187°
2026-05-04 13:42 10.53940 125.07391 34895 ft 454 kts 187°
2026-05-04 13:42 10.47706 125.06605 34896 ft 454 kts 187°
2026-05-04 13:43 10.41452 125.05822 34895 ft 454 kts 187°
2026-05-04 13:43 10.35171 125.05044 34643 ft 454 kts 187°
2026-05-04 13:44 10.32062 125.04652 34392 ft 452 kts 187°
2026-05-04 13:44 10.28967 125.04261 34141 ft 450 kts 187°
2026-05-04 13:44 10.25885 125.03877 33890 ft 447 kts 187°
2026-05-04 13:44 10.22807 125.03490 33510 ft 447 kts 187°
2026-05-04 13:45 10.19731 125.03119 32937 ft 447 kts 187°
2026-05-04 13:45 10.16661 125.02748 32243 ft 448 kts 187°
2026-05-04 13:45 10.13591 125.02367 31491 ft 448 kts 187°
2026-05-04 13:45 10.10515 125.01978 30698 ft 450 kts 187°
2026-05-04 13:46 10.07422 125.01586 29863 ft 451 kts 187°
2026-05-04 13:46 10.04344 125.01199 29288 ft 446 kts 187°
2026-05-04 13:46 10.01296 125.00817 28786 ft 441 kts 187°
2026-05-04 13:46 9.98249 125.00436 28273 ft 436 kts 187°
2026-05-04 13:47 9.95274 125.00066 27763 ft 431 kts 187°
2026-05-04 13:47 9.92326 124.99699 27254 ft 427 kts 187°
2026-05-04 13:47 9.89409 124.99337 26739 ft 423 kts 187°
2026-05-04 13:47 9.86519 124.98980 26230 ft 420 kts 188°
2026-05-04 13:48 9.83633 124.98623 25716 ft 416 kts 188°
2026-05-04 13:48 9.80794 124.98273 25206 ft 413 kts 188°
2026-05-04 13:48 9.77951 124.97924 24691 ft 410 kts 188°
2026-05-04 13:48 9.75143 124.97579 24181 ft 407 kts 188°
2026-05-04 13:49 9.72378 124.97238 23677 ft 404 kts 188°
2026-05-04 13:49 9.69608 124.96896 23168 ft 401 kts 188°
2026-05-04 13:49 9.66866 124.96556 22662 ft 398 kts 188°
2026-05-04 13:49 9.64121 124.96216 22151 ft 396 kts 188°
2026-05-04 13:50 9.61392 124.95879 21642 ft 393 kts 188°
2026-05-04 13:50 9.58686 124.95546 21132 ft 391 kts 188°
2026-05-04 13:50 9.56041 124.95219 20631 ft 388 kts 188°
2026-05-04 13:50 9.53344 124.94886 20114 ft 386 kts 188°
2026-05-04 13:51 9.50725 124.94560 19613 ft 384 kts 188°
2026-05-04 13:51 9.48038 124.94562 19071 ft 385 kts 172°
2026-05-04 13:51 9.45529 124.95419 18559 ft 387 kts 153°
2026-05-04 13:51 9.43404 124.97076 18034 ft 388 kts 133°
2026-05-04 13:52 9.40362 125.01549 17020 ft 386 kts 123°
2026-05-04 13:52 9.38928 125.03838 16506 ft 385 kts 123°
2026-05-04 13:52 9.37507 125.06088 16019 ft 383 kts 123°
2026-05-04 13:53 9.36068 125.08345 15525 ft 381 kts 124°
2026-05-04 13:53 9.34626 125.10590 15033 ft 379 kts 124°
2026-05-04 13:53 9.33195 125.12805 14545 ft 377 kts 124°
2026-05-04 13:54 9.30339 125.17216 13572 ft 373 kts 124°
2026-05-04 13:54 9.28939 125.19380 13095 ft 371 kts 123°
2026-05-04 13:54 9.26133 125.23724 12139 ft 367 kts 123°
2026-05-04 13:55 9.24724 125.25887 11663 ft 365 kts 123°
2026-05-04 13:55 9.21955 125.30139 10899 ft 354 kts 123°
2026-05-04 13:55 9.20633 125.32176 10792 ft 339 kts 123°
2026-05-04 13:56 9.19378 125.34115 10693 ft 325 kts 123°
2026-05-04 13:56 9.18156 125.36004 10610 ft 312 kts 123°
2026-05-04 13:56 9.15733 125.39500 10071 ft 303 kts 125°
2026-05-04 13:57 9.14518 125.41217 9740 ft 300 kts 125°
2026-05-04 13:57 9.13308 125.42924 9416 ft 298 kts 125°
2026-05-04 13:58 9.09724 125.47969 8467 ft 291 kts 124°
2026-05-04 13:58 9.07385 125.51259 7855 ft 285 kts 124°
2026-05-04 13:58 9.06233 125.52877 7554 ft 283 kts 124°
2026-05-04 13:59 9.05092 125.54479 7252 ft 281 kts 124°
2026-05-04 13:59 9.03963 125.56065 6942 ft 279 kts 124°
2026-05-04 13:59 9.01721 125.59216 6348 ft 274 kts 124°
2026-05-04 14:00 9.00611 125.60776 6056 ft 271 kts 124°
2026-05-04 14:00 8.98426 125.63845 5477 ft 266 kts 124°
2026-05-04 14:00 8.97346 125.65363 5189 ft 264 kts 124°
2026-05-04 14:01 8.96297 125.66845 4905 ft 262 kts 124°
2026-05-04 14:01 8.95234 125.68349 4644 ft 258 kts 124°
2026-05-04 14:01 8.92982 125.70873 4531 ft 235 kts 156°
2026-05-04 14:02 8.91395 125.71124 4354 ft 236 kts 190°
2026-05-04 14:02 8.89863 125.70553 4114 ft 234 kts 207°
2026-05-04 14:02 8.88440 125.69795 3871 ft 232 kts 208°
2026-05-04 14:02 8.87029 125.68982 3605 ft 232 kts 219°
2026-05-04 14:03 8.86110 125.67696 3457 ft 226 kts 255°
2026-05-04 14:03 8.86085 125.66146 3313 ft 222 kts 291°
2026-05-04 14:03 8.86737 125.64732 3186 ft 221 kts 300°
2026-05-04 14:03 8.87471 125.63368 3055 ft 221 kts 300°
2026-05-04 14:04 8.88881 125.60648 2749 ft 210 kts 298°
2026-05-04 14:04 8.89514 125.59379 2558 ft 195 kts 298°
2026-05-04 14:04 8.90106 125.58181 2290 ft 183 kts 298°
2026-05-04 14:05 8.91144 125.56057 1962 ft 148 kts 297°
2026-05-04 14:05 8.91587 125.55138 1963 ft 145 kts 298°
2026-05-04 14:05 8.92026 125.54251 1773 ft 140 kts 298°
2026-05-04 14:06 8.92466 125.53363 1376 ft 141 kts 299°
2026-05-04 14:06 8.92907 125.52476 1104 ft 142 kts 297°
2026-05-04 14:06 8.93347 125.51568 950 ft 154 kts 297°
2026-05-04 14:06 8.93827 125.50589 1475 ft 151 kts 298°
2026-05-04 14:07 8.94293 125.49654 1860 ft 151 kts 300°
2026-05-04 14:07 8.94777 125.48701 2051 ft 153 kts 299°
2026-05-04 14:07 8.95265 125.47737 2416 ft 155 kts 299°
2026-05-04 14:07 8.95750 125.46778 2873 ft 154 kts 299°
2026-05-04 14:08 8.96316 125.45863 3299 ft 153 kts 319°
2026-05-04 14:08 8.97211 125.45330 3479 ft 152 kts 339°
2026-05-04 14:08 8.98212 125.45011 3472 ft 149 kts 355°
2026-05-04 14:08 8.99161 125.45312 3452 ft 149 kts 49°
2026-05-04 14:09 9.00048 125.47227 3641 ft 151 kts 64°
2026-05-04 14:09 9.00470 125.48189 3662 ft 151 kts 63°
2026-05-04 14:10 9.01348 125.50124 3831 ft 151 kts 62°
2026-05-04 14:10 9.01794 125.51087 3858 ft 152 kts 62°
2026-05-04 14:10 9.02252 125.52068 4106 ft 156 kts 62°
2026-05-04 14:10 9.02560 125.52729 4142 ft 153 kts 62°
2026-05-04 14:12 9.02865 125.53381 4170 ft 152 kts 62°
2026-05-04 14:12 9.01855 125.59081 4167 ft 159 kts 124°
2026-05-04 14:12 9.00541 125.60886 4121 ft 159 kts 123°
2026-05-04 14:13 8.99884 125.61800 3990 ft 158 kts 123°
2026-05-04 14:13 8.99244 125.62695 3868 ft 158 kts 123°
2026-05-04 14:13 8.98598 125.63599 3740 ft 157 kts 123°
2026-05-04 14:13 8.97965 125.64487 3582 ft 156 kts 123°
2026-05-04 14:14 8.97317 125.65397 3502 ft 166 kts 123°
2026-05-04 14:14 8.95807 125.67530 3474 ft 200 kts 124°
2026-05-04 14:14 8.94983 125.68684 3517 ft 197 kts 124°
2026-05-04 14:15 8.93360 125.70629 3447 ft 167 kts 146°
2026-05-04 14:15 8.91232 125.71040 3394 ft 159 kts 193°
2026-05-04 14:16 8.89220 125.70144 3394 ft 153 kts 208°
2026-05-04 14:16 8.88289 125.69654 3241 ft 149 kts 207°
2026-05-04 14:17 8.86605 125.68492 3003 ft 147 kts 233°
2026-05-04 14:17 8.86142 125.67585 2926 ft 146 kts 256°
2026-05-04 14:17 8.86348 125.65614 2726 ft 143 kts 298°
2026-05-04 14:18 8.86804 125.64723 2553 ft 142 kts 301°
2026-05-04 14:18 8.87722 125.62952 2217 ft 141 kts 298°
2026-05-04 14:19 8.88587 125.61165 1971 ft 141 kts 297°
2026-05-04 14:19 8.89007 125.60268 1812 ft 141 kts 296°
2026-05-04 14:19 8.89429 125.59366 1694 ft 141 kts 296°
2026-05-04 14:19 8.89840 125.58472 1609 ft 141 kts 296°
2026-05-04 14:20 8.90263 125.57567 1521 ft 141 kts 298°
2026-05-04 14:20 8.90683 125.56680 1459 ft 141 kts 296°
2026-05-04 14:20 8.91146 125.55809 1484 ft 141 kts 308°
2026-05-04 14:21 8.92183 125.54132 1193 ft 140 kts 298°
2026-05-04 14:21 8.92603 125.53239 1074 ft 140 kts 296°
2026-05-04 14:21 8.93000 125.52329 976 ft 141 kts 295°
2026-05-04 14:21 8.93410 125.51434 753 ft 140 kts 302°
2026-05-04 14:22 8.93833 125.50557 491 ft 139 kts 299°
2026-05-04 14:22 8.94267 125.49682 286 ft 139 kts 297°
2026-05-04 14:22 8.94699 125.48802 112 ft 138 kts 297°
2026-05-04 14:22 8.95102 125.47979 44 ft 105 kts 297°
2026-05-04 14:23 8.95395 125.47382 37 ft 25 kts 296°
2026-05-04 14:23 8.95473 125.47227 35 ft 21 kts 299°
2026-05-04 14:23 8.95530 125.47110 34 ft 13 kts 295°
2026-05-04 14:24 8.95575 125.47033 34 ft 10 kts 316°
2026-05-04 14:24 8.95595 125.46987 33 ft 8 kts 208°
2026-05-04 14:24 8.95561 125.47032 34 ft 9 kts 103°
2026-05-04 14:24 8.95536 125.47098 34 ft 10 kts 114°
2026-05-04 14:25 8.95505 125.47163 35 ft 10 kts 117°
2026-05-04 14:25 8.95432 125.47311 36 ft 12 kts 115°
2026-05-04 14:25 8.95392 125.47395 37 ft 13 kts 117°
2026-05-04 14:26 8.95347 125.47485 38 ft 14 kts 116°
2026-05-04 14:26 8.95302 125.47574 39 ft 13 kts 117°
2026-05-04 14:26 8.95260 125.47660 40 ft 13 kts 117°
2026-05-04 14:26 8.95233 125.47716 41 ft 13 kts 116°
2026-05-04 14:27 8.95179 125.47824 42 ft 12 kts 117°
2026-05-04 14:27 8.95139 125.47907 43 ft 12 kts 116°
2026-05-04 14:27 8.95127 125.47932 44 ft 12 kts 116°
2026-05-04 14:28 8.94944 125.48128 47 ft 8 kts 128°
2026-05-04 14:28 8.94932 125.48146 47 ft 0 kts 132°
2026-05-04 14:28 8.94928 125.48149 47 ft 0 kts 148°
2026-05-04 14:29 8.94912 125.48148 47 ft 0 kts 202°
2026-05-04 14:29 8.94904 125.48138 47 ft 0 kts 252°
2026-05-04 14:30 8.94903 125.48133 47 ft 1 kts 256°
2026-05-04 14:30 8.94900 125.48126 47 ft 1 kts 248°
2026-05-04 14:30 8.94892 125.48111 47 ft 0 kts 237°